Tracking 20041 objects as of 22-Nov-2019
Live streaming from Space Station
objects crossing your sky now

CZ-3B DEB

Track CZ-3B DEB now!


NORAD ID: 39337
Int'l Code: 2010-042J
Perigee: 643.2 km
Apogee: 43,032.5 km
Inclination: 25.6 °
Period: 785.8 minutes
Semi major axis: 28208 km
RCS: 0.027 m2 (small)
Launch date: September 4, 2010
Source: People's Republic of China (PRC)
Launch site: Xichang Space Center, China (XSC)

Note: This is SATELLITE DEBRIS
aabbcc
Your satellite tracking list
Your tracking list is empty




NASA's NSSDC Master Catalog

Two Line Element Set (TLE):
1 39337U 10042J   19326.39374891  .00000927  00000-0  23735-1 0  9996
2 39337  25.5517  38.8540 7513481 279.5428  10.4711  1.83242007 51924
Source of the keplerian elements: AFSPC